Theta_e
306 306 306 305 305 305 305 306 307 307 308 309 309 309 309 308 308 308 308 309 309 309 309 310 310 310 311 311 312 313 313 313 313 312 312 311 311 312 313 314 314 315 315 315 316 317 319 319 320 320 319 319 319 320 320 321 322 323 324 324 325 325 325 324 324 324 324 324 324 324 324 324 324 324 324 324 323 322 321 319 317 316 315 316 318 319
305 305 305 305 305 306 306 307 307 308 309 309 309 309 309 309 309 309 309 309 308 308 308 308 309 309 309 310 311 311 312 313 313 313 312 312 311 311 311 312 312 313 313 314 314 315 317 318 319 319 320 319 319 319 319 319 320 321 322 322 323 323 324 323 323 323 323 323 323 323 324 324 324 324 324 324 323 322 322 320 318 316 315 316 317 318
304 304 304 304 305 305 305 306 306 307 308 308 308 308 308 308 308 308 308 308 308 308 308 308 308 308 308 309 309 310 310 311 312 312 312 312 311 311 310 310 311 311 312 312 313 314 315 316 317 318 319 319 319 319 319 319 319 319 320 320 321 322 322 322 321 321 321 322 322 323 323 323 323 324 324 324 323 323 322 321 320 319 317 316 316 317
302 302 302 302 302 303 303 303 304 304 305 305 305 306 306 306 307 307 307 307 307 307 307 307 307 307 307 308 308 308 308 309 309 310 310 310 310 310 310 309 309 309 310 310 311 312 314 315 316 317 318 319 319 319 319 319 319 319 319 319 320 320 320 320 320 320 320 321 322 322 323 323 323 323 323 323 323 322 322 321 321 320 319 318 316 316
300 300 300 301 301 301 301 301 301 302 302 302 302 302 303 303 304 304 304 305 305 306 306 306 306 307 307 307 307 307 307 307 308 308 308 309 309 309 308 308 307 307 307 308 309 310 312 314 315 316 317 317 318 319 319 319 319 319 319 318 319 319 319 319 319 319 319 320 321 322 322 323 323 323 323 323 322 322 321 321 321 321 321 319 317 316
299 299 299 299 300 300 300 300 300 300 301 301 301 301 302 302 303 303 304 304 305 305 306 306 306 306 306 306 306 306 306 307 307 307 307 307 307 307 307 306 306 306 305 306 306 308 310 313 315 316 317 317 317 318 318 319 319 319 319 318 318 318 318 318 318 318 319 320 321 322 322 322 322 322 322 322 321 321 320 320 320 320 321 320 318 317
299 299 299 299 299 299 299 300 300 301 301 301 301 302 302 302 303 303 304 304 305 306 306 306 306 306 306 306 306 306 306 306 307 307 307 307 307 307 306 306 306 306 305 305 305 306 309 311 314 315 316 316 317 317 317 318 318 319 319 319 318 318 318 318 318 318 319 320 321 322 322 322 322 322 321 321 320 320 319 319 319 319 320 319 318 317
298 298 298 299 299 299 299 299 299 300 300 300 300 300 301 301 302 303 303 304 304 305 305 305 305 305 305 305 305 306 306 307 307 307 307 307 307 307 307 307 307 306 306 305 305 306 308 310 312 314 315 316 316 316 317 317 318 318 318 319 319 319 319 318 318 318 318 319 321 322 322 322 322 321 321 320 320 319 318 318 318 318 319 319 318 317
298 298 297 297 297 297 297 297 298 298 298 298 299 299 300 300 300 301 301 302 302 303 303 303 303 303 304 304 304 305 306 306 307 307 307 307 307 307 307 307 307 307 306 306 305 306 308 309 311 313 314 315 315 316 316 316 317 317 318 318 319 319 319 318 318 317 318 319 321 322 322 322 321 321 320 320 319 318 318 317 317 318 318 319 318 318
297 297 297 297 297 297 297 297 297 297 297 298 298 298 299 299 299 299 300 300 300 301 301 301 302 302 303 303 304 304 305 305 306 306 306 307 307 307 307 307 307 307 306 306 306 306 307 308 310 312 313 314 315 315 316 316 316 317 317 318 318 318 319 318 318 317 318 319 321 322 322 321 321 320 320 319 319 318 317 316 316 317 318 318 319 318
296 296 296 296 296 296 297 297 296 296 297 297 297 297 298 298 299 299 299 300 300 300 301 301 302 302 303 303 303 304 304 305 305 305 306 306 307 307 307 307 307 307 307 306 306 305 306 307 308 310 312 313 314 315 315 315 316 316 317 317 318 318 318 317 317 317 317 318 319 320 320 319 319 319 319 318 318 317 316 316 316 316 317 318 319 319
296 296 296 296 296 295 295 295 295 295 296 296 296 296 297 297 298 298 299 300 300 300 301 301 302 302 302 303 304 304 304 304 305 305 305 305 306 306 307 307 307 307 307 306 306 305 305 306 307 309 310 312 313 314 314 315 315 315 316 316 317 317 317 316 316 316 317 317 317 318 317 317 317 317 318 317 317 316 316 315 316 316 317 318 318 318
295 295 295 295 295 295 295 295 295 295 295 295 295 295 296 296 296 297 297 297 298 298 298 299 299 300 300 301 302 303 303 303 304 304 304 304 304 304 305 306 307 307 307 306 306 305 305 305 306 307 309 310 312 313 313 314 314 315 315 315 315 316 316 315 315 316 316 316 316 316 316 316 316 316 316 316 316 316 315 315 316 316 317 317 318 318
294 295 294 294 294 294 294 294 294 294 294 294 294 295 295 295 295 295 295 295 295 296 296 297 297 298 298 299 300 301 302 302 302 302 302 302 302 303 303 304 305 306 307 306 306 306 305 306 306 307 308 309 310 312 312 313 313 314 314 314 315 315 315 315 315 315 315 315 316 316 315 315 315 315 316 316 315 315 315 315 316 317 317 317 318 318
294 294 294 294 294 294 294 294 294 294 294 294 294 294 294 294 294 295 295 295 295 295 296 297 297 297 298 299 299 300 301 302 302 302 302 302 302 302 303 303 304 305 306 306 306 306 306 306 306 307 307 308 309 310 311 312 313 313 313 314 314 314 315 315 315 315 315 316 316 316 316 315 315 315 315 315 315 315 315 316 316 317 317 317 318 318
293 293 293 293 293 293 293 293 293 293 293 293 293 294 294 294 294 294 295 295 295 295 296 296 296 297 297 297 298 299 300 301 302 302 303 303 303 303 303 303 304 305 305 306 306 306 306 306 306 306 307 307 308 309 310 310 311 312 313 313 314 314 314 315 315 315 315 316 316 316 316 316 315 315 315 315 315 315 316 316 316 317 317 317 318 318
292 292 292 292 292 292 292 292 293 293 293 293 293 293 294 294 294 294 294 295 295 295 295 295 295 296 296 296 296 296 297 299 300 301 302 304 304 304 304 304 304 304 305 305 306 306 306 306 306 306 306 307 307 308 308 309 310 311 311 312 313 313 314 314 314 315 315 316 316 316 316 316 316 315 314 314 315 316 316 316 316 317 317 317 317 317
292 292 292 292 292 292 292 292 292 292 293 293 293 293 293 293 294 294 294 294 294 294 295 295 295 295 295 295 295 295 296 296 297 299 301 302 302 303 304 304 304 304 304 305 305 306 306 307 306 306 307 306 306 307 308 308 309 310 310 311 312 313 313 313 314 314 315 315 316 316 316 316 316 315 314 314 315 316 316 316 316 316 316 317 317 317
291 291 291 292 292 292 292 292 292 292 292 292 293 293 293 293 293 294 294 294 294 294 294 294 294 294 295 295 295 295 295 295 296 298 299 299 300 300 301 302 303 304 304 304 305 305 306 306 307 307 307 306 306 307 307 308 309 309 310 310 311 312 313 313 313 314 314 315 315 316 316 316 315 315 314 314 315 316 316 316 316 316 316 316 316 316
291 291 291 291 291 291 292 292 292 292 292 292 292 293 293 293 293 293 294 294 294 294 294 294 294 294 294 294 294 294 294 295 295 296 297 298 298 299 299 301 302 302 303 304 304 305 305 306 306 307 307 307 306 306 307 308 309 309 310 310 311 311 312 312 313 313 313 314 314 315 315 315 315 314 314 314 315 315 315 315 315 315 315 315 316 316
291 291 291 291 291 291 291 291 291 291 292 292 292 292 292 293 293 293 293 293 293 293 293 293 293 293 293 293 293 293 293 294 294 295 296 296 297 297 298 298 299 300 301 302 303 304 305 305 306 306 307 307 307 306 306 307 308 309 309 310 310 311 311 312 312 312 313 313 314 314 314 314 314 314 314 314 315 315 315 315 314 314 314 314 315 315
292 291 291 291 291 291 291 291 291 291 292 292 292 292 292 292 293 292 292 292 292 292 292 292 292 293 293 293 293 293 294 294 294 295 295 295 296 296 296 297 297 298 298 299 300 302 303 304 305 305 306 306 306 306 306 306 307 308 309 309 310 310 310 310 311 311 312 313 313 314 314 314 313 313 313 314 315 315 315 314 314 313 313 313 314 314
292 292 292 292 292 292 292 292 292 292 292 292 292 293 293 293 293 293 293 293 294 294 294 294 294 294 295 295 295 295 295 295 295 295 295 295 295 296 296 296 296 296 297 297 298 300 302 303 304 305 305 306 306 306 306 306 306 306 307 308 309 309 309 309 309 310 311 312 313 313 313 313 313 313 313 314 314 315 315 314 313 313 313 313 313 313
291 292 292 292 292 292 292 292 292 292 292 292 293 293 293 293 293 293 293 294 294 294 294 294 294 294 294 294 295 295 295 296 296 296 296 296 296 296 296 296 296 296 296 296 297 298 300 302 303 304 304 305 305 305 306 305 305 306 306 307 307 307 307 308 308 308 309 310 312 312 313 313 313 313 313 313 314 314 314 314 313 313 312 312 313 313
290 290 290 291 291 291 291 291 291 291 292 292 292 292 292 292 292 292 292 292 292 292 292 291 291 291 291 292 292 294 295 296 296 297 297 297 297 297 296 296 296 296 296 296 297 298 299 300 302 303 303 304 304 305 305 305 305 305 305 305 305 306 306 306 307 307 308 309 310 312 312 313 313 312 312 313 313 313 314 313 313 312 312 312 312 313
290 290 290 290 290 290 290 290 290 290 290 291 291 291 291 291 291 291 291 291 291 291 291 291 291 291 290 291 291 292 292 294 295 296 297 297 297 297 297 297 297 297 297 297 297 298 298 300 301 302 303 303 303 304 304 305 305 305 305 304 304 304 305 305 306 307 307 308 309 310 311 312 312 312 312 312 312 313 313 313 312 312 311 312 312 313
290 290 290 290 290 290 290 290 290 290 290 290 290 290 291 291 291 291 291 291 291 291 291 291 291 291 290 290 290 290 291 292 293 294 296 297 297 297 297 297 297 297 297 297 298 298 299 300 301 302 303 303 303 304 304 304 304 304 304 304 303 304 304 304 305 306 307 308 309 309 311 311 312 312 312 312 311 312 312 312 312 311 311 312 312 313
289 289 289 289 290 290 290 290 290 290 290 290 290 291 291 291 291 291 291 291 291 291 291 291 291 291 291 291 290 290 290 291 291 292 293 295 296 296 297 297 297 297 297 298 298 298 299 300 301 302 302 303 303 303 304 304 303 304 303 303 303 303 303 303 304 305 307 308 309 309 310 311 311 312 312 311 311 311 312 311 311 310 311 312 312 313
289 289 289 289 290 290 290 290 290 290 290 290 291 291 291 291 291 291 291 291 291 291 291 291 291 291 291 291 291 291 291 291 291 291 292 293 294 295 296 296 297 297 297 297 298 298 298 299 300 301 301 302 302 302 303 303 303 303 303 302 302 302 302 303 303 304 306 307 309 309 310 311 311 311 311 311 311 311 311 311 311 310 311 312 312 313
289 289 289 290 290 290 290 291 291 291 291 291 291 291 291 291 291 291 291 291 291 291 291 291 291 292 292 292 291 291 291 291 291 291 291 292 292 293 294 295 296 296 297 297 297 297 297 298 298 298 299 300 301 301 301 302 302 302 302 302 302 302 302 302 302 303 304 306 308 309 310 310 311 311 311 311 310 310 310 310 310 311 311 312 312 312
289 290 290 290 291 291 291 291 290 290 290 290 290 290 290 290 291 291 291 291 291 291 291 291 292 292 292 292 291 291 291 291 291 290 291 291 292 292 293 294 295 296 296 297 297 297 297 297 297 297 298 299 299 300 300 301 301 301 301 301 301 301 302 302 302 302 303 305 306 308 309 310 310 311 311 311 310 310 310 310 310 311 311 311 311 310
290 291 291 291 290 290 290 289 289 289 289 289 289 289 289 289 290 290 291 291 291 291 291 291 291 291 291 291 291 291 291 291 290 290 291 291 291 292 293 294 295 296 297 297 297 297 297 298 298 298 298 298 299 299 300 300 301 301 301 301 301 301 301 302 302 302 303 304 305 307 308 309 310 310 311 310 310 310 310 310 310 310 310 310 310 309
290 290 290 289 289 289 289 288 288 288 288 289 289 289 289 289 289 290 290 290 290 291 291 291 291 291 291 291 291 291 291 291 291 291 291 291 292 292 293 294 295 295 296 297 297 297 297 297 298 298 298 298 298 299 299 300 300 300 301 301 301 301 301 301 302 302 302 303 305 306 307 308 309 310 310 310 310 310 310 310 310 310 309 309 309 308
288 288 288 288 288 288 288 288 288 288 289 289 289 289 289 289 289 289 290 290 290 290 290 291 291 291 291 291 291 291 291 291 291 292 292 292 292 293 293 294 294 294 295 296 296 297 297 297 297 297 298 298 299 299 299 299 300 300 300 300 301 301 301 301 302 302 303 303 304 305 307 308 309 309 310 310 310 310 309 310 310 309 309 309 308 307
288 288 288 288 288 288 288 288 288 288 289 289 289 289 289 289 289 289 290 290 290 290 290 290 291 291 291 291 292 292 292 291 292 292 292 292 292 293 293 294 294 294 294 295 295 296 297 297 298 298 299 299 299 299 299 299 299 299 299 300 300 300 301 301 302 302 303 303 304 305 306 307 308 309 309 309 310 309 309 309 309 308 308 308 308 307
287 287 287 287 288 288 288 288 289 289 289 289 289 289 290 290 290 290 290 290 290 290 290 290 290 291 291 291 291 292 291 291 291 291 291 291 292 292 293 293 294 294 294 294 295 296 296 297 297 298 298 298 298 299 299 299 298 298 298 298 299 299 300 301 302 302 303 304 304 305 306 307 308 308 309 309 309 309 309 309 308 308 307 307 307 307
288 288 288 289 289 289 289 290 290 290 290 290 290 290 290 290 290 290 290 290 290 290 290 290 290 290 290 290 291 291 291 291 291 291 291 291 291 292 292 293 293 294 294 294 295 295 295 296 297 297 297 298 298 298 299 298 298 297 297 297 297 298 298 299 301 302 303 304 305 305 306 307 308 308 308 308 309 308 308 308 308 307 306 306 306 306
289 289 289 289 289 289 289 289 289 289 289 289 289 289 289 290 290 290 290 290 290 290 290 290 289 289 290 290 290 290 290 290 290 290 290 290 291 291 292 292 293 293 294 294 294 294 294 295 296 297 297 297 298 298 299 298 297 297 296 297 297 297 297 298 299 301 303 304 305 306 306 307 307 308 308 308 308 307 307 307 306 306 305 305 305 305
289 289 289 288 288 287 287 287 287 287 287 287 288 288 288 288 288 288 288 289 289 289 289 289 289 289 289 289 290 290 290 290 290 290 290 290 291 291 291 292 292 293 293 294 294 294 294 294 295 296 297 297 297 298 298 298 297 297 297 297 296 297 297 297 298 300 302 303 305 305 306 306 307 307 307 307 307 306 306 305 305 304 304 303 303 304
287 287 287 287 286 286 286 287 287 287 287 287 287 287 287 287 287 287 288 288 288 289 289 289 289 290 290 290 290 290 290 290 290 291 291 291 291 291 292 292 292 293 293 293 293 293 293 294 294 295 295 296 297 297 298 298 298 297 297 297 297 297 297 297 298 299 301 303 304 305 305 306 306 306 306 306 306 305 305 304 303 303 303 302 302 302
286 286 286 286 286 286 286 286 287 287 287 287 287 287 287 287 287 287 287 288 288 288 289 289 290 290 290 290 291 291 291 291 291 291 291 291 291 292 292 292 292 293 293 293 292 292 293 293 294 295 295 296 296 297 298 298 298 298 298 297 298 298 298 298 298 299 301 302 303 304 304 305 305 305 305 305 305 305 304 303 302 302 302 302 302 302
285 285 285 286 286 286 286 286 286 287 287 288 288 288 288 288 288 288 288 288 289 289 289 290 290 291 291 291 291 291 291 292 292 292 292 292 292 292 292 292 292 292 292 292 292 292 292 293 294 294 295 296 296 296 297 297 298 298 298 298 298 298 298 298 299 300 301 302 303 303 303 303 304 304 304 304 304 303 303 303 302 301 301 301 301 301
285 285 285 285 285 286 286 286 286 286 287 287 287 288 288 288 289 289 289 290 290 290 290 290 291 291 291 291 291 292 292 292 292 292 292 292 292 292 292 292 292 292 292 292 292 292 292 293 294 294 295 295 296 296 296 297 297 297 297 297 297 297 297 297 298 299 300 301 301 302 302 302 303 303 303 303 302 302 302 301 301 301 300 301 301 301
285 285 285 285 285 285 286 286 286 286 286 287 287 287 287 287 288 288 289 290 290 290 290 291 291 291 291 291 291 291 291 291 290 290 290 291 291 291 291 292 292 292 292 292 292 292 293 293 294 294 295 295 295 296 296 296 297 297 296 296 297 297 297 297 298 298 299 299 300 300 301 301 302 302 301 301 301 301 300 300 300 300 300 300 300 301
285 285 285 285 285 285 286 286 286 286 286 286 286 286 287 287 287 287 288 289 289 290 290 290 290 290 290 290 290 290 290 290 289 289 290 290 290 290 291 291 292 292 292 292 292 293 293 294 294 294 294 295 295 296 296 296 296 296 296 296 296 297 297 297 297 298 298 298 299 299 299 300 300 300 299 299 299 299 299 299 299 299 299 299 300 300
285 285 285 285 285 285 285 286 286 286 286 286 286 286 287 287 287 287 288 288 289 289 289 290 290 290 290 290 290 290 290 290 289 290 290 290 290 291 291 291 292 292 293 293 293 293 293 294 294 295 295 295 295 296 296 296 296 296 296 296 296 296 297 297 297 297 297 297 298 298 298 299 299 298 297 297 297 297 298 298 298 298 298 299 299 299
284 284 285 285 285 285 285 285 286 286 287 287 287 287 287 287 287 287 288 288 289 289 289 290 290 290 290 290 290 290 290 290 290 290 290 290 291 291 291 292 292 293 293 293 294 294 294 294 294 295 294 294 295 296 296 297 297 297 296 296 296 296 296 296 296 296 297 297 297 297 297 297 297 297 296 296 296 296 296 297 297 297 298 298 298 298
284 284 284 284 284 285 285 285 285 285 286 287 287 287 288 288 288 288 288 288 289 289 289 290 290 290 290 290 290 291 291 291 291 291 291 290 291 291 291 292 292 293 293 293 294 294 294 294 295 295 295 295 295 296 296 296 297 297 297 296 296 296 296 296 296 296 296 296 296 296 297 297 296 296 295 295 295 295 295 295 296 296 297 297 297 297
284 284 284 284 284 284 284 284 284 284 284 285 285 286 286 287 287 288 288 288 289 289 289 289 290 290 290 290 291 291 291 291 291 291 291 291 291 291 291 292 293 293 293 293 293 293 294 294 294 295 295 295 296 296 296 296 297 297 297 297 296 296 296 295 295 295 295 295 296 296 296 296 296 296 295 295 294 293 293 294 294 295 295 296 296 296
283 283 283 283 283 283 283 283 283 283 284 284 284 284 285 285 286 287 287 288 288 289 289 289 289 289 290 290 290 291 291 291 292 292 292 292 292 292 292 293 293 293 293 293 293 293 293 294 294 294 295 295 295 296 296 296 296 297 296 296 296 296 296 295 295 295 295 295 295 295 296 295 295 295 295 294 293 293 293 293 293 293 294 294 295 295
283 283 283 282 282 282 283 283 283 283 283 284 284 284 284 285 285 286 286 287 287 288 288 289 289 289 290 290 290 291 291 291 291 292 292 292 292 292 293 293 294 293 293 293 293 293 293 294 294 294 294 295 295 295 296 296 296 296 296 296 296 296 295 295 294 294 294 294 295 295 295 295 295 294 294 294 293 293 292 292 292 292 293 293 294 294
Wind_Speed
15 16 16 16 17 18 19 19 19 20 21 20 20 20 20 20 20 20 19 19 19 20 20 20 21 21 21 21 21 21 22 24 25 26 26 26 27 27 27 27 26 26 26 27 27 28 29 30 29 27 24 21 20 20 20 22 25 27 29 29 29 28 27 27 27 27 28 28 27 27 28 29 29 29 29 29 29 29 28 28 27 26 26 26 26 25
16 16 16 16 17 18 19 18 18 18 19 19 19 19 18 19 19 19 19 20 20 20 21 21 21 21 21 21 21 21 22 23 24 25 26 26 27 28 28 28 28 28 27 27 27 28 29 30 31 31 29 27 25 23 22 22 23 24 25 25 25 26 26 26 26 26 27 28 27 28 29 30 30 30 29 29 29 29 29 28 27 27 26 26 27 27
16 17 17 16 16 17 18 18 17 17 18 18 18 18 18 19 19 20 20 21 21 21 21 21 22 22 22 22 22 22 22 22 23 24 24 25 26 28 29 29 30 29 29 28 28 28 28 29 31 32 33 32 31 29 27 25 24 24 23 23 23 24 25 25 26 26 27 28 27 28 29 31 31 31 30 30 30 29 29 28 27 27 27 27 28 28
17 17 18 17 17 18 18 18 18 18 19 19 20 20 20 20 21 22 22 22 22 23 23 23 23 23 23 23 23 22 22 22 23 23 24 25 27 28 30 31 31 31 31 30 29 29 28 29 30 32 33 34 34 34 33 31 30 28 26 25 24 24 25 25 26 27 28 28 28 28 30 31 31 31 30 30 29 29 28 27 27 27 28 28 29 29
17 17 18 17 18 18 18 19 19 20 21 22 22 23 23 23 23 24 24 24 24 24 24 24 23 23 23 23 23 23 24 24 24 25 26 27 29 31 32 34 34 34 33 33 32 30 30 29 30 31 32 34 35 36 37 36 35 34 32 29 27 26 26 26 27 28 29 30 30 30 31 32 32 31 30 30 29 28 27 27 27 27 28 28 29 30
17 17 17 17 17 18 19 19 19 20 21 22 22 22 23 23 23 24 24 24 24 24 23 22 22 22 23 23 24 25 25 26 26 27 28 30 31 33 34 35 35 35 34 33 33 32 31 30 30 30 31 33 34 36 38 39 39 38 37 35 33 30 29 29 29 29 30 31 32 32 33 33 33 32 31 30 29 28 28 27 27 27 28 28 30 30
17 17 16 16 17 18 18 19 18 18 18 19 20 20 21 21 21 22 22 22 22 22 22 22 22 23 23 24 25 25 25 26 26 27 27 28 29 30 31 31 31 32 32 32 31 31 31 30 30 29 30 31 33 34 36 38 40 40 40 39 37 35 33 31 31 31 32 33 33 34 34 34 33 32 31 30 29 28 28 28 28 28 28 29 30 30
17 17 16 16 17 18 18 18 17 17 17 18 19 19 20 20 20 20 20 20 21 21 22 22 23 24 24 24 24 24 24 23 23 24 24 24 24 25 25 27 28 29 30 30 30 30 29 29 29 29 29 30 31 33 34 36 38 39 40 41 40 38 36 34 33 33 33 34 35 36 35 35 34 32 31 30 30 29 29 29 29 28 28 29 30 31
16 17 17 17 17 17 18 18 18 17 17 18 18 19 19 20 20 21 21 22 22 22 22 23 24 25 25 24 23 23 22 22 22 22 22 23 23 23 24 25 27 28 29 30 29 29 28 28 28 28 29 29 30 32 33 35 36 38 39 40 40 40 39 37 35 34 34 35 36 36 36 35 33 32 32 31 31 30 30 30 30 29 29 30 30 32
16 17 17 17 17 16 16 17 17 16 16 17 18 18 19 20 21 21 22 23 23 22 22 23 24 24 24 24 23 23 22 23 23 22 22 23 23 24 25 26 27 28 29 29 29 29 28 28 28 28 29 30 31 32 34 35 36 37 38 39 40 40 39 38 37 36 35 36 37 36 35 34 33 33 32 32 32 31 31 31 31 30 30 30 32 33
16 16 16 16 16 15 15 16 17 16 16 17 18 19 19 19 19 20 20 21 21 21 21 21 21 22 22 22 22 22 22 22 22 22 22 22 22 23 25 26 27 28 29 30 30 30 29 29 29 29 30 31 32 33 35 36 37 38 39 39 40 40 39 38 37 37 36 37 37 36 35 34 34 33 33 33 33 33 32 32 31 30 31 32 33 34
14 15 14 15 15 15 15 16 17 17 16 16 16 17 17 17 17 17 17 18 18 18 19 19 19 20 20 21 21 21 21 21 22 22 23 23 23 23 24 25 26 27 28 29 30 30 30 30 29 30 30 31 33 34 35 36 37 38 39 39 40 39 39 38 38 37 37 37 37 36 36 35 35 35 34 34 34 33 33 32 31 31 32 33 34 35
14 14 14 15 15 15 15 15 15 15 15 14 14 14 15 15 16 16 17 18 19 19 20 21 21 21 21 21 21 21 21 22 23 24 24 25 24 24 25 25 26 26 27 27 28 29 29 30 30 30 31 31 32 33 34 35 36 37 38 39 39 39 38 38 38 38 38 37 37 37 36 36 35 36 36 35 35 34 33 32 31 31 32 34 35 36
14 14 14 14 14 14 14 14 14 14 14 14 14 15 16 17 17 18 19 20 21 21 21 22 22 22 22 21 21 21 21 22 23 25 26 26 26 26 26 27 27 26 25 25 26 27 28 29 29 30 31 31 32 33 33 34 35 36 37 38 38 39 39 38 38 38 38 38 37 37 36 36 36 36 36 36 35 34 33 32 31 31 33 35 36 36
13 12 12 11 12 13 13 14 14 14 15 15 16 17 18 18 18 18 18 19 20 20 20 21 21 22 21 20 19 19 20 21 22 24 25 26 26 26 26 27 27 26 25 25 25 26 27 26 26 28 30 31 32 32 33 33 34 34 35 37 38 38 39 39 39 39 39 39 38 37 36 36 37 37 37 37 36 35 34 32 32 32 33 35 35 35
13 12 11 11 12 14 14 15 15 16 16 16 17 17 17 17 17 17 17 18 18 18 17 17 17 18 20 20 19 18 19 20 21 22 23 24 24 23 23 25 26 25 24 24 25 25 26 25 26 27 28 30 31 32 32 33 33 34 34 35 37 38 39 40 41 41 41 40 39 38 37 37 37 38 38 38 37 36 35 34 33 33 33 34 34 33
14 13 13 13 14 15 16 16 16 17 17 17 17 16 16 17 17 17 17 17 17 16 16 14 9 7 12 18 19 18 17 19 20 20 20 20 21 20 20 22 24 24 23 24 24 25 25 25 25 26 28 29 30 31 31 32 33 34 34 35 36 37 39 40 41 42 42 41 40 39 38 38 38 39 39 39 38 37 36 36 35 35 34 34 34 33
15 15 15 15 15 16 16 16 16 17 17 17 16 17 17 17 17 17 17 17 16 16 15 14 11 7 6 12 16 17 16 19 21 21 21 21 21 20 20 21 23 24 25 24 24 25 25 25 26 26 26 28 29 29 30 31 32 33 34 34 35 36 38 39 41 42 43 42 41 40 40 39 39 40 40 40 39 38 38 38 38 37 36 35 35 34
16 16 16 16 17 17 17 17 17 16 16 16 16 17 17 17 17 17 18 17 17 16 16 15 14 14 13 16 19 19 17 19 21 22 22 23 23 22 21 21 23 24 24 25 25 24 25 26 26 26 27 27 28 29 29 29 31 32 33 33 34 35 36 38 39 41 42 43 42 41 41 40 41 41 41 41 40 39 39 39 39 39 38 37 36 36
18 18 18 18 18 18 18 18 18 17 17 17 17 17 18 18 18 18 18 18 18 18 18 17 17 17 18 20 22 21 19 19 20 21 21 23 24 24 22 21 22 23 24 24 24 24 24 25 25 26 27 28 28 28 28 28 29 30 31 32 33 34 35 36 37 39 41 42 43 42 42 41 42 42 42 42 41 41 40 40 40 40 40 39 38 37
19 20 20 19 19 19 19 19 18 18 19 19 19 19 19 19 18 19 19 19 19 20 20 19 19 20 21 22 23 23 21 21 21 21 21 22 24 24 23 22 23 24 25 26 25 25 24 24 24 25 26 27 28 28 28 28 29 29 30 31 32 32 33 33 34 36 39 41 42 43 42 42 43 43 43 43 42 42 41 40 40 40 41 40 39 38
22 22 22 21 20 21 21 21 20 20 20 20 20 20 19 18 18 19 20 20 20 20 21 21 22 23 24 25 26 26 24 23 23 23 22 20 23 25 24 23 24 26 27 28 27 26 25 25 25 25 25 26 27 28 29 30 29 29 30 30 31 31 31 31 32 34 36 39 41 43 43 43 43 43 43 43 43 42 42 41 40 40 40 41 40 39
23 22 21 20 20 21 22 22 21 20 19 19 20 19 18 18 18 19 20 19 19 20 21 23 24 24 25 26 27 27 26 25 25 25 23 15 18 24 24 23 23 25 27 27 27 26 26 25 25 25 25 26 27 28 29 30 31 31 30 30 30 30 31 31 32 33 35 38 40 42 43 43 43 43 43 43 43 43 42 41 40 39 40 41 41 40
23 23 22 21 20 21 21 21 21 20 20 20 20 21 20 21 21 22 22 22 22 23 24 25 26 27 27 26 26 26 25 24 23 23 22 19 20 23 23 22 23 25 27 26 26 26 26 26 25 25 25 26 26 27 28 29 30 31 31 31 31 31 31 32 32 33 34 36 39 42 43 43 43 43 43 43 43 43 42 41 40 39 39 40 41 40
23 24 24 23 23 23 23 23 23 22 22 21 22 22 22 22 22 23 25 26 26 25 25 25 25 26 26 27 26 26 25 21 21 21 22 19 20 22 23 22 23 24 26 26 25 26 27 27 26 25 25 26 27 27 28 29 29 30 31 31 31 32 32 33 33 33 34 35 37 40 42 43 43 43 43 43 43 42 42 41 39 39 39 40 40 40
26 27 27 27 27 28 28 28 28 28 27 27 26 25 23 22 22 23 24 24 23 23 23 21 19 20 23 24 25 26 26 22 20 20 21 18 19 21 22 21 22 23 25 25 25 25 27 28 28 27 26 27 28 28 28 28 28 28 29 30 31 32 32 33 34 35 35 35 37 39 41 43 43 43 43 43 42 42 41 40 39 38 38 39 40 40
29 30 30 31 31 31 32 32 32 32 32 32 31 29 27 25 24 23 22 22 22 21 21 15 12 13 18 20 22 25 25 24 23 22 21 19 18 18 19 19 19 21 24 24 23 24 26 28 28 27 26 28 28 28 28 27 27 27 28 29 31 31 32 33 34 35 36 37 38 39 41 43 43 44 44 43 42 41 41 39 38 37 38 39 40 40
28 30 31 31 32 32 33 33 33 33 33 33 33 32 31 28 26 23 22 22 21 20 19 14 10 9 10 15 21 24 25 25 25 25 23 21 18 17 18 17 17 19 22 22 22 22 24 25 26 25 25 27 28 28 28 26 25 25 27 29 30 31 32 32 33 35 36 38 39 41 42 43 44 45 44 43 42 41 40 38 37 37 38 39 40 40
27 28 30 30 31 32 32 32 32 32 32 32 31 30 30 28 27 25 25 23 21 19 20 19 17 14 13 18 22 24 24 25 25 25 24 23 22 22 22 19 19 20 21 20 20 21 21 23 24 24 24 26 26 27 27 26 25 25 27 29 31 32 33 33 33 34 36 38 40 42 43 44 45 46 45 44 42 40 39 37 36 37 39 40 40 41
27 27 28 29 29 29 29 28 28 28 28 27 27 27 27 26 26 27 27 24 21 20 21 22 21 19 18 18 16 16 18 22 23 23 23 22 22 23 24 22 23 23 21 17 13 13 16 21 24 25 25 25 25 25 26 26 26 27 28 30 32 33 34 34 34 34 36 38 40 42 44 45 46 47 45 44 42 40 39 37 37 38 40 40 40 40
28 27 26 25 24 24 23 23 23 24 24 25 25 25 25 25 25 25 25 23 21 21 22 21 21 21 19 12 7 5 8 18 21 20 20 21 22 22 22 22 23 24 21 15 7 3 8 14 20 24 24 24 24 24 26 27 28 28 28 29 31 33 34 36 36 35 36 37 39 42 44 45 46 46 46 44 42 40 39 38 39 40 40 40 39 39
25 23 22 22 21 21 21 22 23 24 24 25 25 25 24 24 24 24 23 23 22 22 22 22 23 23 21 16 11 9 10 20 22 20 20 21 22 22 20 20 22 23 20 18 13 9 6 5 11 19 21 22 22 22 24 26 28 28 28 28 29 31 33 35 35 35 36 37 39 41 43 45 46 46 45 44 42 40 39 39 40 41 40 40 39 38
22 23 23 23 24 24 24 25 25 25 25 25 24 24 24 24 24 24 24 24 24 23 23 23 23 23 23 23 22 22 24 26 25 23 22 22 21 20 19 19 21 22 21 20 20 18 13 9 12 17 20 21 21 21 23 25 27 28 28 28 29 30 31 32 32 32 34 35 37 39 41 43 45 46 45 43 42 41 40 41 42 42 41 40 39 38
27 28 28 28 28 28 27 27 26 25 25 24 24 24 24 25 25 25 25 25 25 25 25 24 23 22 23 23 24 25 28 28 26 23 22 22 19 17 17 18 20 21 22 21 21 20 18 17 16 17 18 21 22 22 23 25 26 28 29 30 30 30 30 30 29 29 30 31 33 35 38 41 44 45 45 43 42 42 42 42 43 43 42 42 41 39
30 30 30 29 29 29 28 27 27 26 26 26 25 25 25 25 26 26 26 26 26 26 26 25 24 24 23 22 20 21 25 25 24 22 22 21 19 16 15 16 18 20 21 21 21 19 16 17 17 15 14 16 18 20 22 24 26 28 30 31 31 31 30 29 28 27 27 28 30 32 35 37 40 43 43 43 43 43 43 44 44 44 43 44 44 42
28 28 29 29 29 29 28 27 26 25 25 24 24 23 23 23 24 25 25 25 25 25 25 25 25 25 25 24 22 22 24 25 25 23 22 22 21 18 15 15 17 19 20 20 20 19 17 17 18 17 15 12 12 14 18 21 24 27 28 30 31 32 32 30 28 26 25 26 28 31 33 35 37 39 41 43 44 44 45 45 45 44 43 44 45 45
28 28 27 25 24 22 21 20 20 19 19 19 19 19 20 21 23 24 23 24 24 24 25 26 26 27 27 27 27 28 28 28 27 25 25 25 24 22 19 18 20 21 20 19 18 19 19 16 16 16 16 13 10 10 12 16 20 23 26 29 30 31 31 30 28 26 25 26 27 29 31 34 35 37 39 41 42 44 45 45 45 43 42 42 43 45
25 23 20 18 17 16 16 17 17 18 19 20 20 21 21 22 23 23 23 24 25 25 26 26 27 28 29 30 31 31 32 31 31 30 29 28 28 27 24 22 22 23 23 21 20 19 18 13 10 8 7 12 15 15 14 14 15 19 22 26 28 30 30 29 28 27 26 26 27 28 31 33 34 35 36 38 40 42 42 43 42 40 39 39 40 42
18 17 17 17 17 18 20 21 22 23 24 24 25 25 25 25 26 26 26 26 26 27 27 28 28 29 30 31 33 33 33 34 34 34 34 34 32 31 28 26 25 25 26 25 24 22 20 16 11 7 5 9 15 18 18 16 15 16 19 21 23 25 27 28 28 28 28 27 28 28 29 32 34 35 34 35 36 38 38 37 37 37 36 35 35 35
18 19 20 21 22 22 23 24 25 25 25 25 25 25 25 26 26 27 28 28 28 28 28 29 29 29 30 31 32 33 33 34 35 35 35 36 36 35 32 30 28 27 27 27 26 24 22 21 20 20 19 16 16 18 18 17 16 16 16 15 16 18 23 26 27 28 29 28 28 28 29 31 33 34 34 34 35 36 35 34 34 35 35 34 32 31
22 22 23 23 24 24 24 25 24 24 23 23 23 23 24 24 24 25 26 26 27 27 27 28 28 29 30 31 32 32 33 34 34 34 34 35 36 36 34 32 30 28 28 27 27 26 25 24 24 24 24 22 21 20 19 19 18 17 16 15 15 17 20 23 25 27 28 28 27 27 28 30 32 32 32 33 34 35 36 35 35 34 34 34 34 32
23 24 24 24 24 24 24 24 24 24 23 22 23 23 23 23 23 23 22 22 23 24 24 24 25 25 26 27 29 30 30 30 31 31 32 32 33 34 33 31 30 28 27 27 27 27 27 26 24 24 24 23 21 20 20 20 19 18 18 18 17 17 16 19 22 24 24 25 26 26 28 29 30 31 31 31 32 35 37 38 37 36 34 34 34 34
23 23 24 24 24 24 25 25 26 26 25 24 24 23 24 24 24 23 21 21 21 22 21 21 21 21 21 21 22 24 26 26 27 27 29 30 31 31 32 31 29 28 28 27 26 27 28 26 25 24 25 24 22 21 19 18 18 18 18 19 18 14 9 12 18 21 22 22 24 25 28 29 29 30 30 30 32 34 36 38 38 37 36 34 34 33
22 23 23 24 24 25 25 25 25 24 24 24 25 25 25 24 22 21 21 21 21 21 20 20 20 20 19 19 21 23 25 26 27 28 29 30 31 32 33 34 33 32 32 30 28 26 26 25 25 26 25 25 23 22 20 18 17 17 18 19 19 16 12 12 15 19 19 19 21 23 25 27 28 28 28 29 31 33 34 35 36 36 35 34 34 33
22 22 23 23 23 22 22 23 23 24 24 25 25 26 26 25 23 22 21 22 22 21 21 20 20 19 18 21 23 24 26 27 27 28 29 30 31 32 33 34 34 35 35 34 31 27 24 23 23 25 25 24 23 21 20 19 18 17 18 19 20 20 18 16 17 19 19 18 19 21 23 26 27 28 27 27 29 31 33 32 32 33 33 34 34 34
21 21 22 22 21 21 22 23 24 24 24 25 25 26 26 25 24 23 23 23 23 23 23 22 21 19 18 19 21 23 24 25 26 26 26 26 27 28 31 32 33 34 34 35 34 32 29 26 25 24 23 22 21 19 19 19 18 16 16 18 19 18 17 16 17 19 20 20 20 21 23 25 27 26 24 24 25 27 30 30 31 32 33 34 34 34
21 21 21 21 21 21 22 23 22 22 22 23 23 24 24 23 23 22 23 24 24 23 23 22 21 20 20 20 21 21 21 22 23 23 23 23 24 24 26 29 31 32 33 33 34 34 33 32 29 26 23 19 17 16 18 18 18 17 17 17 17 16 14 14 16 19 21 21 21 22 24 24 24 23 23 23 23 24 25 27 29 31 33 34 34 33
21 21 21 21 21 21 22 22 22 22 22 21 21 21 21 21 20 21 21 22 22 21 21 20 19 20 20 20 21 21 21 21 21 22 22 22 23 23 24 26 28 30 30 30 30 31 32 32 31 28 24 20 16 15 17 18 18 17 16 17 16 15 13 13 16 18 20 21 22 24 25 24 23 22 22 22 21 21 21 24 26 29 31 32 33 33
20 20 21 21 21 22 22 23 23 22 22 23 22 22 22 21 21 20 20 20 20 19 19 19 19 19 19 19 21 21 21 20 20 20 21 22 23 24 25 26 27 27 26 25 25 26 27 28 29 29 26 23 20 18 19 18 18 17 16 17 17 16 14 14 16 18 19 20 22 25 26 25 25 25 25 22 19 19 20 22 24 26 29 31 32 32
21 21 21 21 22 22 22 22 23 23 23 24 24 24 24 24 23 22 21 21 21 20 20 20 20 19 19 20 21 22 20 19 18 18 20 21 23 24 24 25 24 22 20 19 19 19 19 20 22 26 28 28 26 23 21 19 18 17 17 17 17 17 16 15 16 18 20 20 22 23 24 23 25 26 26 23 21 20 20 21 22 24 27 29 30 31
21 21 22 21 22 22 23 23 22 23 23 23 23 23 24 23 23 23 23 22 22 22 22 23 22 21 20 20 21 21 21 20 19 20 21 22 23 23 22 22 20 18 14 11 10 9 9 8 10 15 21 27 29 28 25 21 19 18 16 17 18 18 17 17 18 19 21 21 22 22 22 21 22 23 23 22 21 20 19 19 21 23 26 28 28 29
Wind_Direction
276 279 280 280 280 280 279 277 276 276 277 279 281 284 286 287 287 287 288 289 290 290 290 290 290 290 290 290 290 289 288 288 289 290 290 288 285 282 279 278 278 279 280 279 276 273 269 267 265 265 264 263 260 256 252 247 243 240 239 238 238 237 237 236 236 236 235 233 231 229 229 229 229 229 227 225 222 218 214 213 214 214 213 212 212 214
278 279 279 278 277 277 278 278 277 276 277 280 282 285 286 287 287 288 288 289 289 289 289 289 288 288 288 287 287 286 286 287 288 290 290 290 289 286 282 279 277 277 278 278 278 276 272 268 265 263 261 260 259 258 257 254 250 245 240 238 236 235 234 234 235 236 236 234 232 230 230 230 230 229 227 225 223 220 216 214 214 214 214 214 214 214
280 280 280 280 280 280 281 283 282 282 283 285 287 289 289 289 289 288 289 290 289 289 287 287 287 287 286 285 284 284 284 285 286 288 289 289 289 288 285 282 278 276 275 276 277 277 275 272 268 264 261 259 257 256 256 256 255 251 244 240 236 233 232 233 235 237 238 236 233 231 230 231 230 229 227 225 223 221 219 217 216 217 216 216 216 216
281 282 282 284 283 282 282 284 287 288 289 290 291 292 291 291 289 288 288 288 288 287 286 285 285 285 285 285 284 283 282 282 282 284 285 285 286 285 284 283 280 278 276 275 275 275 274 273 270 266 262 259 257 255 255 255 256 255 252 247 241 236 234 234 236 238 239 237 233 230 230 230 230 229 227 225 223 221 220 220 220 221 220 218 217 217
280 281 283 285 285 284 284 285 288 290 290 290 290 290 289 288 287 286 286 285 285 284 284 283 283 283 284 284 284 283 281 279 278 278 278 279 280 281 282 282 281 280 278 275 274 273 272 271 269 266 264 261 258 256 254 253 254 254 255 253 249 244 240 238 238 239 239 237 234 230 229 229 229 228 226 225 223 222 221 221 223 224 224 221 219 217
281 282 285 286 285 285 286 287 288 289 289 288 287 286 285 284 283 283 283 282 282 281 281 281 281 282 282 283 283 283 281 279 277 275 275 275 277 278 280 281 282 281 279 277 274 272 270 268 267 265 263 261 259 257 255 253 252 252 253 253 253 250 246 242 239 238 238 237 234 231 229 228 228 227 226 225 224 223 223 224 225 227 226 223 220 217
283 283 284 284 284 284 285 285 286 286 287 287 286 285 284 283 282 281 280 280 281 281 281 281 281 282 282 282 283 282 282 280 278 277 276 276 277 278 280 282 282 283 282 280 277 273 270 267 266 264 263 261 260 258 256 254 253 252 251 252 252 252 249 245 241 238 237 236 234 232 229 228 227 227 226 225 225 225 225 226 228 228 228 225 220 217
284 284 284 284 285 285 285 284 284 285 286 287 288 288 288 286 285 284 284 283 283 283 284 284 283 283 282 282 282 282 281 281 280 279 279 279 278 278 279 280 282 284 285 284 281 276 271 268 266 265 264 263 261 259 257 256 254 253 251 251 251 251 249 245 240 237 235 235 233 231 229 227 227 227 226 226 227 227 228 229 229 229 228 225 221 217
284 286 285 284 285 286 286 284 283 284 286 287 289 290 291 291 290 288 287 286 285 284 284 284 283 283 282 282 282 281 281 280 280 280 280 279 277 276 275 277 280 283 286 287 285 281 275 271 269 268 267 265 263 261 258 257 255 254 253 252 251 250 247 243 238 234 232 232 232 230 229 228 227 227 227 228 228 229 230 231 230 229 226 224 221 217
281 282 283 282 282 282 284 284 285 286 287 288 288 288 288 289 289 288 286 284 282 281 280 279 280 280 281 281 281 281 281 281 281 281 281 280 278 277 276 276 279 282 285 288 287 284 279 275 273 271 269 267 264 261 259 256 255 254 253 252 250 247 243 238 234 230 229 230 230 230 229 229 229 229 229 229 229 230 231 233 232 228 224 223 220 217
279 279 281 283 283 282 282 284 287 290 290 289 287 285 281 280 281 282 282 282 282 282 280 278 278 279 281 282 283 283 283 284 284 284 284 285 285 283 282 280 281 283 285 287 287 285 281 277 274 272 270 267 264 260 257 255 253 252 251 250 247 243 238 233 229 227 227 227 228 229 230 230 230 230 230 229 230 231 232 233 232 229 225 222 220 218
281 283 284 285 286 287 285 286 288 290 290 289 286 283 279 277 278 280 283 286 288 288 288 286 285 284 285 287 287 287 287 287 288 289 290 290 290 289 287 285 284 284 285 285 286 284 282 278 275 272 270 267 263 259 256 253 251 250 248 247 244 239 234 230 227 226 226 226 228 229 230 231 231 230 230 230 230 231 232 232 231 228 225 221 219 218
282 284 285 285 285 285 286 288 289 290 288 285 284 283 284 287 289 291 292 292 292 293 294 293 291 289 287 287 288 289 289 288 289 289 290 290 289 288 287 285 283 281 281 281 282 282 281 279 276 273 270 267 263 260 257 253 251 249 247 245 242 237 233 229 227 226 226 227 228 229 230 230 230 230 229 229 229 230 230 230 229 226 223 219 217 216
283 284 284 283 283 283 285 287 288 287 285 283 283 285 288 292 294 294 293 290 289 290 292 291 289 288 287 286 286 287 288 288 288 287 286 285 284 284 283 282 279 277 276 276 276 277 279 278 276 273 271 268 265 262 259 255 253 250 247 245 242 238 234 231 229 228 229 229 230 231 231 231 230 229 229 228 228 228 227 227 225 222 220 217 215 213
283 285 285 283 283 284 284 286 286 284 283 284 285 287 289 290 290 289 288 286 287 290 291 289 288 287 285 284 284 286 287 287 286 284 283 281 280 280 280 279 277 275 273 271 271 273 275 275 272 271 270 268 265 263 260 258 255 253 250 247 244 241 237 234 232 231 231 232 232 232 232 231 230 228 228 227 226 225 223 222 220 219 217 215 213 212
285 286 286 285 284 283 283 283 283 283 283 284 285 286 287 287 286 286 286 286 289 292 293 292 291 289 285 283 284 286 288 287 285 284 284 283 282 281 281 281 279 276 273 270 269 270 271 270 269 268 268 267 266 264 263 261 258 256 253 251 248 244 241 238 236 234 234 233 233 233 232 231 229 228 226 225 224 221 219 217 216 215 215 214 213 212
284 284 282 282 281 280 280 280 279 280 282 284 284 284 284 284 286 287 287 288 290 292 290 290 291 290 288 286 285 285 289 291 291 292 293 292 291 290 289 287 286 283 278 273 269 267 267 266 265 265 265 266 266 266 265 263 261 259 257 254 251 248 245 242 240 237 236 235 234 233 232 231 229 227 225 224 222 219 216 213 212 212 212 213 213 212
277 276 276 277 277 278 279 279 279 280 282 283 284 285 284 284 285 287 287 287 287 287 286 285 282 281 286 287 285 285 291 296 297 297 297 294 294 295 296 295 293 290 286 280 274 269 266 263 262 262 262 264 266 266 266 265 263 261 259 256 254 251 248 245 242 240 237 236 234 233 232 230 228 225 223 222 220 217 214 212 210 209 210 211 212 213
271 270 271 272 275 277 277 278 279 280 281 283 285 287 286 286 286 286 284 285 285 285 285 285 283 280 281 282 283 286 291 294 295 295 292 289 289 290 294 295 295 293 291 287 283 278 271 266 262 261 261 262 264 265 265 264 263 261 259 257 255 253 250 247 244 241 239 237 235 233 231 229 226 223 221 220 218 216 214 212 211 209 209 210 211 213
270 268 267 270 274 276 275 274 275 277 279 282 285 286 286 287 287 286 284 286 286 286 285 285 284 282 282 282 283 286 289 290 291 290 289 286 285 285 288 291 291 290 290 289 288 285 280 273 266 262 260 260 260 261 261 261 261 260 259 257 255 254 252 249 246 243 240 238 236 234 231 228 224 221 219 218 216 215 214 213 212 211 210 210 211 212
268 267 266 267 270 272 272 272 272 273 276 280 283 283 283 284 284 282 282 284 285 284 284 282 281 281 283 283 283 284 286 288 288 287 286 284 281 280 281 282 283 283 283 283 284 285 284 279 272 265 260 258 257 257 257 257 257 257 257 256 255 254 253 251 249 246 242 239 237 235 232 227 223 220 217 216 215 214 214 214 213 213 212 211 211 212
265 266 266 265 264 266 268 270 271 272 273 275 277 277 277 278 278 277 277 278 279 279 278 277 278 280 282 282 281 282 282 281 280 280 281 279 276 275 276 277 277 276 276 277 279 281 281 280 277 271 264 259 256 255 254 254 254 254 254 254 254 254 254 254 252 249 246 242 239 237 234 229 223 219 217 216 215 214 214 214 215 215 214 213 212 211
263 264 265 264 262 263 266 269 270 271 271 271 271 272 273 274 275 276 278 278 278 278 279 279 281 282 283 282 282 281 280 277 275 274 273 271 271 272 274 274 273 272 272 272 274 276 278 278 276 274 270 264 258 255 253 253 252 251 250 250 251 252 254 254 254 253 250 246 242 239 235 230 225 220 218 217 216 215 215 215 216 217 216 214 212 210
264 266 267 267 267 267 268 270 271 272 272 271 271 272 273 275 276 278 280 280 281 283 285 286 286 285 283 283 283 282 279 276 272 270 267 266 267 269 270 270 270 270 270 270 272 274 275 275 275 274 273 269 263 257 253 251 251 250 248 248 248 250 252 253 253 253 252 249 245 241 237 232 226 222 220 219 218 216 216 216 217 218 217 215 212 209
265 266 268 268 269 269 269 269 270 271 272 273 273 274 276 277 278 278 278 277 278 279 281 281 281 279 279 280 279 278 277 276 272 268 265 266 267 268 268 266 265 266 268 269 270 271 272 273 273 273 272 270 266 261 255 251 250 249 248 248 249 250 251 251 252 252 251 250 247 244 239 234 228 224 223 222 221 218 217 217 218 219 218 214 211 208
265 266 266 267 267 268 267 268 268 269 270 271 272 273 275 276 276 275 274 272 272 273 274 273 272 272 275 276 275 274 274 274 271 268 266 269 272 272 269 265 263 263 266 267 267 267 269 270 271 270 269 268 266 262 257 252 249 247 248 250 251 252 252 252 251 251 250 249 248 246 242 237 231 227 225 225 223 221 219 218 219 219 217 213 209 207
266 267 267 267 267 267 267 268 268 269 269 269 269 269 269 271 271 269 266 265 267 269 269 268 268 270 273 272 271 271 271 271 269 267 268 272 276 276 274 271 267 265 266 266 266 265 265 267 267 267 265 265 264 261 257 253 249 247 248 250 252 253 253 252 251 251 249 248 247 246 244 240 235 231 228 227 226 224 221 220 219 218 214 210 207 206
267 267 267 267 267 267 267 268 268 269 269 269 268 267 266 265 265 263 262 264 265 265 264 265 266 269 270 269 269 270 270 268 266 266 268 273 274 274 276 278 275 271 270 271 269 266 263 263 263 263 262 262 262 260 257 254 251 249 249 252 255 256 255 253 251 250 249 248 247 245 243 241 237 233 230 229 228 226 224 221 219 215 211 206 204 204
268 266 266 266 266 266 266 265 266 267 268 269 269 268 266 263 262 262 263 264 263 262 263 265 266 266 267 269 270 271 269 266 265 265 266 269 269 269 273 277 277 274 275 278 277 272 264 262 263 264 262 261 260 258 257 255 254 252 253 255 257 258 258 255 252 249 248 248 247 245 243 241 238 234 231 229 228 227 226 223 218 213 207 203 200 198
271 268 267 266 265 265 265 265 266 268 270 271 272 271 269 266 263 263 264 264 260 258 261 263 263 263 264 268 271 270 267 265 264 264 264 264 264 266 270 272 271 271 274 280 282 276 268 266 266 266 263 261 257 255 254 253 253 253 253 255 257 259 259 257 253 249 247 246 246 245 242 239 236 233 231 228 227 227 226 223 217 210 203 198 194 192
271 269 268 268 268 268 269 271 273 274 275 275 274 273 271 268 264 263 262 260 256 254 257 259 260 261 262 265 268 268 266 268 267 265 263 262 263 265 268 268 268 268 270 273 277 283 273 270 268 266 263 260 257 253 251 250 249 249 249 251 253 255 256 256 254 251 247 245 244 244 242 238 234 231 228 226 225 225 225 222 215 206 197 192 188 185
272 272 273 274 275 276 277 277 278 277 276 275 273 271 269 266 263 261 259 256 254 253 254 257 260 261 261 261 262 264 267 270 270 268 264 262 264 265 266 266 267 268 269 266 265 267 276 276 268 266 263 263 260 255 251 249 246 244 244 245 247 250 253 254 253 251 247 244 243 243 241 236 231 227 225 223 223 223 222 219 211 201 192 186 183 181
286 286 285 284 283 281 280 278 277 275 273 270 268 266 265 264 262 259 257 254 252 251 252 255 257 259 259 259 260 262 265 267 268 266 262 261 262 265 266 266 267 269 269 267 265 266 269 273 273 271 269 269 267 261 254 249 246 242 240 241 243 246 249 250 250 248 246 244 243 242 240 235 229 225 222 220 219 219 218 214 206 198 189 183 180 177
289 287 285 283 281 279 277 275 272 270 268 265 263 262 262 262 261 259 256 253 251 249 248 249 251 253 256 257 258 260 262 263 264 262 259 258 260 265 268 267 267 268 269 268 267 268 269 271 272 274 276 275 271 264 255 249 245 242 239 238 240 243 245 246 246 244 243 241 240 240 238 232 227 222 219 217 216 215 214 209 202 195 188 184 179 176
283 281 279 278 276 274 272 270 267 264 263 262 261 260 260 261 260 258 255 252 250 248 247 246 247 248 250 253 255 257 260 262 262 261 260 260 263 268 271 268 267 268 269 268 266 265 266 268 272 277 281 279 273 264 254 248 245 242 239 237 237 239 241 242 242 240 239 237 236 236 234 228 222 218 216 214 213 211 209 205 199 193 189 185 181 178
278 276 274 273 271 269 268 266 264 261 260 259 259 259 259 259 259 257 255 253 251 249 248 247 247 248 249 251 254 258 261 264 264 264 263 264 266 270 272 270 269 269 269 268 266 264 263 266 270 275 278 279 275 267 259 252 247 244 240 238 237 238 238 239 238 237 235 233 232 232 230 224 217 213 211 210 209 207 205 201 196 192 188 185 183 181
273 272 270 269 267 266 266 266 265 264 263 263 264 264 263 263 264 263 261 258 256 254 252 252 252 252 253 254 255 258 261 264 264 263 263 263 265 267 268 269 269 269 268 268 268 267 266 266 268 269 269 269 271 271 265 255 248 244 241 240 239 238 238 237 235 234 233 231 230 229 227 221 215 209 207 206 205 203 201 198 194 190 187 184 183 182
267 267 268 270 272 275 277 278 278 277 278 278 278 276 274 272 270 270 268 266 263 261 259 258 257 256 256 256 256 258 259 261 261 261 260 260 261 262 263 265 265 265 265 267 270 272 270 269 267 264 261 265 269 272 270 257 245 240 241 242 242 241 239 237 235 233 232 231 230 228 225 220 213 207 203 200 198 197 194 192 190 187 184 182 181 180
271 275 279 282 284 284 284 284 284 284 283 282 280 278 276 274 273 271 270 269 267 264 262 260 259 258 258 257 257 257 258 258 258 259 259 259 258 258 258 259 260 260 261 264 268 272 272 271 269 265 262 267 272 273 272 263 250 242 241 242 242 241 240 238 236 233 232 231 229 225 221 216 210 205 199 195 192 189 187 185 184 182 179 178 176 176
289 288 288 287 287 286 286 285 285 284 283 280 278 276 274 272 271 270 268 266 264 262 261 260 259 258 258 258 257 257 257 257 257 257 257 257 255 254 253 254 255 258 260 262 264 266 268 270 270 269 268 268 270 272 272 269 261 249 239 236 236 237 238 237 235 233 232 230 227 221 215 209 205 200 196 192 188 185 183 180 178 177 176 173 170 169
290 289 289 289 288 287 286 285 284 282 281 279 277 275 274 273 271 269 267 264 261 259 258 257 256 256 255 255 256 256 256 256 256 256 255 254 253 251 250 250 253 256 260 262 262 262 262 263 265 266 267 266 265 266 268 270 267 256 241 234 232 233 233 233 232 231 230 228 223 215 208 202 198 195 192 189 185 182 179 176 175 174 174 172 169 167
287 287 287 287 287 285 284 283 281 280 279 278 277 276 276 276 275 272 268 264 260 258 255 253 252 251 251 250 252 253 252 252 252 253 253 253 253 251 250 250 252 255 258 260 260 259 257 257 258 260 262 262 261 261 263 266 267 261 248 238 234 233 232 229 227 226 224 221 215 208 202 197 193 190 187 184 181 179 178 176 175 173 171 170 169 167
282 282 283 283 283 282 281 280 279 278 276 275 274 273 274 274 274 273 270 267 264 261 257 254 252 253 254 253 252 251 251 251 252 254 255 256 256 255 254 253 253 254 255 256 257 256 254 252 252 254 257 258 258 259 260 263 266 262 252 242 234 226 218 219 219 218 216 212 207 201 196 192 189 186 182 179 177 176 175 175 175 174 171 170 168 168
279 279 280 280 280 280 279 277 276 274 273 272 271 270 270 269 269 268 268 267 265 263 261 259 259 260 261 260 260 259 259 259 259 258 258 258 257 257 257 256 255 253 252 252 253 253 252 249 249 251 253 254 256 257 258 260 262 261 254 244 233 224 216 213 209 207 205 203 199 193 189 185 182 178 175 173 172 172 172 172 172 172 171 170 169 169
278 279 279 280 279 279 277 276 275 274 272 271 270 269 268 267 265 264 263 264 264 263 261 261 261 262 261 261 262 262 262 262 261 260 258 256 256 256 255 254 253 252 251 250 250 249 249 247 247 248 249 250 250 251 252 255 257 256 251 242 233 225 219 213 205 198 194 193 191 187 183 179 174 169 166 165 166 168 169 169 169 169 168 168 168 169
280 280 281 282 281 280 279 279 277 275 272 270 268 267 266 264 262 260 258 259 260 261 261 259 258 257 257 258 258 259 260 260 259 257 255 253 252 252 252 252 251 249 248 248 247 247 246 245 245 246 245 246 246 245 245 246 248 248 246 239 231 222 214 207 199 194 190 187 184 181 177 172 167 161 157 158 160 163 166 167 168 168 167 166 167 169
282 282 282 283 283 282 282 282 282 280 278 275 272 270 268 265 261 258 256 256 256 257 258 256 254 254 255 257 257 256 256 255 254 252 251 251 250 250 251 251 250 248 246 245 245 244 244 243 243 243 245 246 247 246 244 241 240 239 238 233 226 218 208 199 194 191 189 185 180 176 172 167 162 157 154 154 155 157 162 165 167 168 166 166 167 169
282 282 282 283 284 284 285 285 286 286 286 285 284 282 279 275 270 264 260 258 256 255 255 254 254 256 258 259 258 257 255 254 252 251 249 250 251 252 252 252 250 248 247 245 244 242 241 240 240 241 242 243 246 248 248 244 238 232 228 223 218 213 206 199 194 191 188 183 178 174 169 165 161 155 151 149 149 152 155 160 164 165 165 165 166 168
282 282 283 284 285 285 285 285 285 284 284 285 286 287 287 286 282 277 272 267 263 260 259 258 258 259 260 261 261 260 258 256 254 252 251 251 252 253 253 252 251 251 251 251 247 243 240 239 239 240 241 241 243 246 248 245 238 231 224 216 211 207 203 199 194 190 187 182 177 173 170 168 164 159 153 148 146 147 149 154 158 162 163 164 166 168
283 283 284 285 285 284 284 284 283 282 281 281 281 282 282 282 281 279 277 274 271 267 264 262 261 261 260 261 260 260 259 258 258 257 255 254 253 251 250 248 248 251 254 254 249 244 241 240 240 240 240 239 239 240 242 241 237 229 221 212 207 203 201 197 193 189 186 181 177 173 171 168 165 161 156 150 146 145 145 148 154 158 162 163 165 168
285 285 285 284 284 283 283 282 281 280 279 279 278 278 278 277 276 275 273 271 269 266 264 263 261 259 258 258 258 258 257 257 258 259 259 258 254 250 247 244 244 247 250 251 247 242 239 239 239 239 238 237 237 236 235 235 231 224 216 209 205 201 198 194 190 187 184 180 176 173 170 166 162 159 156 150 146 145 144 146 150 155 160 162 164 167